Regional Weather Roundup
Issued by NWS Newport/Morehead, NC

Current Version | Previous Version | Text Only | Print | Product List | Glossary Off
Versions: 1 2 3 4 5 6 7 8 9 10 11 12 13 14 15 16 17 18 19 20 21 22 23 24 25 26 27 28 29 30 31 32 33 34 35 36 37 38 39 40 41 42 43 44 45 46 47 48 49 50

000
ASUS42 KMHX 021424
RWRMHX
WEATHER ROUNDUP FOR EASTERN NORTH CAROLINA
NATIONAL WEATHER SERVICE NEWPORT/MOREHEAD CITY NC
900 AM EST MON MAR 02 2015

NOTE: "FAIR" INDICATES FEW OR NO CLOUDS BELOW 12,000 FEET
WITH NO SIGNIFICANT WEATHER AND/OR OBSTRUCTIONS TO VISIBILITY

NCZ015>017-031-032-045>047-102-103-021500-
NORTH COAST

CITY           SKY/WX    TMP DP  RH WIND       PRES   REMARKS
EDENTON        CLOUDY    41  41  99 W6        30.20R FOG
ELIZABETH CITY CLOUDY    41  40  96 W7        30.18R
KITTY HAWK     RAIN      41  41 100 W7        30.16R
MANTEO         LGT RAIN  43  43 100 W6        30.18R

$$

NCZ045>047-081-094-103-104-021500-
CENTRAL COAST

CITY           SKY/WX    TMP DP  RH WIND       PRES   REMARKS
FRISCO         FOG       44  44 100 W10G17    30.21S VSB 1/4
SWANQUARTER      N/A     43 N/A N/A W3G10     30.15F

$$

NCZ095-097-098-100-101-021500-
SOUTHERN COAST

CITY           SKY/WX    TMP DP  RH WIND       PRES   REMARKS
BEAUFORT       FOG       45  45 100 SW10      30.23R VSB 1
CEDAR ISLAND     N/A     46 N/A N/A W8        30.24S
JACKSONVILLE   CLOUDY    47  45  93 W8        30.24R
PINEY ISLAND     N/A    N/A N/A N/A MISG      30.22R
WILMINGTON     CLOUDY    47  47 100 W8        30.25R FOG


$$

NCZ011>013-027>030-043-044-078>080-089-090>093-098-021500-
COASTAL PLAIN

CITY           SKY/WX    TMP DP  RH WIND       PRES   REMARKS
AHOSKIE        CLOUDY    38  38  98 CALM      30.21R FOG
CLINTON        FOG       44  44 100 W5        30.26R VSB 1
ELIZABETHTOWN  CLOUDY    45  45 100 W8        30.24S FOG
GOLDSBORO      CLOUDY    44  44 100 SW12      30.20R
GREENVILLE     CLOUDY    43  43 100 W6        30.22R FOG
HAVELOCK       CLOUDY    48  46  93 W12       30.23F
KENANSVILLE    CLOUDY    44  44  99 W6        30.26R FOG
KINSTON        CLOUDY    45  45 100 SW7       30.23R FOG
NEW BERN       CLOUDY    47  45  93 W8        30.23S
RICHLANDS      CLOUDY    46  43  87 SW8       30.24S
ROCKY MOUNT    CLOUDY    42  41  96 W7        30.21R FOG
WASHINGTON     CLOUDY    44  43  97 W9        30.21R FOG
WHITEVILLE     FOG       46  45  97 CALM      30.25F VSB 3/4

$$

AMZ130-135-150-152-154-156-158-170-250-252-270-ANZ085-086-088-633-658-670-021500-
MARINE OBSERVATIONS

STATION/POSITION TIME  TEMP    WIND        PRES    WAVE   SWELL
                       AIR SEA DIR/SP/G            HT/PER HT/PER
                 (UTC) (F)     (DEG/KT/KT) (MB)    (FT/S) (FT/S)
CHESAPEAKE LIGHT 1400   36     260/ 11/ 11 1022.0
64 E VA BEACH    1350   43 51  260/ 17/ 21 1020.4    5/ 8   3/ 8
DUCK             1400   39 34  260/ 14/ 18 1020.6
2 E DUCK         1311                        N/A     3/ 7
10 NE DUCK       1322      37                N/A     3/ 7
OREGON INLET     1400   41 42  230/  8/  9 1022.1
HATTERAS CG      1400   44 42  270/  8/ 10 1023.2
CAPE LOOKOUT     1400   47     250/ 12/ 15 1023.6
BEAUFORT LAB     1400   44 43  250/  9/ 13 1022.8
27 SE WRIGHTSVLE NOT AVBL
5 SE WRIGHTSVLE  NOT AVBL
225 S CAPE HAT   1350   71 73  230/ 14/ 17 1025.4    6/ 9   5/ 9
41 SE CHARLESTON 1350   60 68  230/ 10/ 12 1025.1    5/ 8   5/ 8

$$


USA.gov is the U.S. government's official web portal to all federal, state and local government web resources and services.